Regional Weather Roundup
Issued by NWS

Home | Current Version | Previous Version | Graphics & Text | Print | Product List | Glossary On
Versions: 1 2 3 4 5 6 7 8 9 10 11 12 13 14 15 16 17 18 19 20 21 22 23 24 25 26 27 28 29 30 31 32 33 34 35 36 37 38 39 40 41 42 43 44 45 46 47 48 49 50
000
ASUS43 KDMX 190201
RWRIA

WEATHER ROUNDUP FOR IOWA
NATIONAL WEATHER SERVICE DES MOINES IA
900 PM CDT FRI AUG 18 2017

NOTE: "FAIR" INDICATES FEW OR NO CLOUDS BELOW 12,000 FEET WITH NO
SIGNIFICANT WEATHER AND/OR OBSTRUCTIONS TO VISIBILITY.

* - THESE STATIONS ARE NOT NWS STATIONS...THUS NOT UNDER NWS
QUALITY CONTROL.  THEY ALSO DO NOT REPORT WEATHER SUCH
AS PRECIPITATION OR FOG.

IAZ001>003-012>014-020>022-031>034-043>046-190300-
   NORTHWEST IOWA

CITY           SKY/WX    TMP DP  RH WIND       PRES   REMARKS
CARROLL *      PTCLDY    70  68  94 CALM      29.90R
CHEROKEE *     CLOUDY    72  68  88 S6        29.89S
DENISON *      CLEAR     72  68  88 SE3       29.92R
LE MARS *      PTCLDY    72  68  88 NW10G17   29.90R
ORANGE CITY *  CLOUDY    73  70  88 NW10G16   29.92R
SHELDON *      CLOUDY    70  61  73 N6G15     29.91R
SIOUX CITY     CLEAR     75  65  70 NW7       29.90R
SPENCER        LGT RAIN  70  65  84 SW7       29.91R
STORM LAKE *   CLOUDY    70  64  83 S5        29.92R
$$

IAZ055>058-069>071-079>083-090>094-190300-
   SOUTHWEST IOWA

CITY           SKY/WX    TMP DP  RH WIND       PRES   REMARKS
ATLANTIC *     CLEAR     72  68  88 CALM      29.91R
AUDUBON *      CLEAR     70  64  83 CALM      29.92R
CLARINDA *       N/A     70  68  94 S3        29.92S
COUNCIL BLFS * CLEAR     79  66  65 CALM      29.91R HX  81
CRESTON *      CLEAR     73  64  73 SW5       29.92S
HARLAN  *      CLEAR     72  68  88 CALM      29.94R
LAMONI         CLEAR     74  66  76 SW5       29.91R
RED OAK *      CLEAR     72  68  88 S3        29.91R
SHENANDOAH *   CLEAR     72  68  88 CALM      29.91R
$$

IAZ047>049-059>061-072>074-084-190300-
   CENTRAL IOWA

CITY           SKY/WX    TMP DP  RH WIND       PRES   REMARKS
AMES           CLOUDY    73  66  78 NE3       29.90R
ANKENY *       PTCLDY    72  66  83 CALM      29.90R
BOONE *        MOCLDY    70  64  83 NE6       29.90R
CHARITON *     CLEAR     75  64  69 N5        29.89S
DES MOINES     PTCLDY    79  64  60 E6        29.88R HX  81
GRINNELL*      CLEAR     68  64  86 NE5       29.91R
KNOXVILLE *    CLEAR     75  66  73 E3        29.88R
MARSHALLTOWN   CLEAR     67  63  87 NE6       29.90R
NEWTON *       CLEAR     73  66  78 NE6       29.90R
PELLA *        CLEAR     74  66  77 E3        29.90R
PERRY *          N/A     71  68  92 NE3       29.90R
$$

IAZ004>006-015-016-023>025-035-036-190300-
   NORTH CENTRAL IOWA

CITY           SKY/WX    TMP DP  RH WIND       PRES   REMARKS
ALGONA *       MOCLDY    68  64  88 E5        29.93R
CLARION *      CLOUDY    66  66 100 E7        29.92R
ESTHERVILLE    TSTM      66  64  93 NE15      29.92R FOG
FORT DODGE *   CLOUDY    68  61  77 E7        29.92R
MASON CITY     PTCLDY    61  58  90 SE3       29.94R
FOREST CITY *    N/A     63  61  94 CALM      29.92S
WEBSTER CITY * CLEAR     66  63  88 CALM      29.89S
IOWA FALLS *     N/A     69  64  82 NE3       29.92S
$$

IAZ007>011-017>019-026>030-037>042-050>054-066-190300-
   NORTHEAST IOWA

CITY           SKY/WX    TMP DP  RH WIND       PRES   REMARKS
CEDAR RAPIDS   CLEAR     70  60  70 NE8       29.89R
CHARLES CITY * CLEAR     61  61 100 CALM      29.93R
CLINTON *      PTCLDY    67  63  87 N7        29.91R
DECORAH *      CLEAR     63  61  94 CALM      29.91S
DUBUQUE        CLOUDY    65  60  84 NE3       29.92R
MONTICELLO *   CLOUDY    64  61  88 CALM      29.90R
OELWEIN *      CLEAR     64  63  94 NE3       29.93R
WATERLOO       CLEAR     65  61  87 N3        29.90R
$$

IAZ064-065-067-068-078-190300-
   EAST CENTRAL IOWA

CITY           SKY/WX    TMP DP  RH WIND       PRES   REMARKS
DAVENPORT      MOCLDY    67  62  84 NE6       29.92R
IOWA CITY      CLEAR     73  62  68 NE8       29.90R
MUSCATINE *    PTCLDY    72  64  78 NE6       29.89R
QUAD CITIES    CLOUDY    76  62  62 N6        29.89R
$$

IAZ062-063-075>077-085>089-095>099-190300-
   SOUTHEAST IOWA

CITY           SKY/WX    TMP DP  RH WIND       PRES   REMARKS
BURLINGTON     MOCLDY    68  67  96 SW5       29.88S
FAIRFIELD *    CLEAR     72  66  83 NE5       29.89R
FORT MADISON * CLOUDY    68  66  94 CALM      29.89R
KEOKUK *       CLOUDY    72  66  83 CALM      29.88R
OSKALOOSA *      N/A     71  67  87 NE3       29.89R
OTTUMWA        CLEAR     75  67  76 NE7       29.88R
WASHINGTON *   CLEAR     70  68  94 NE6       29.90R
$$

ABBREVIATIONS USED IN REMARKS
   TC - TEMPERATURES IN CELSIUS
  WCI - WIND CHILL INDEX
   HX - HEAT INDEX
  VSB - VISIBILITY
$$





USA.gov is the U.S. government's official web portal to all federal, state and local government web resources and services.